Wind_Speed
24 25 27 28 28 28 29 30 31 30 30 30 29 28 28 26 25 24 24 22 21 20 19 18 17 16 15 15 14 14 14 14 14 14 14 14 14 14 14 13 13 14 14 15 17 18 19 19 19 19 19 20 21 21 20 20 22 24 25 23 19 17 17 17 17 17 17 18 17 17 17 18 19 20 18 16 16 18 23 30 32 33 32 30 28
24 25 25 26 27 29 29 30 31 31 31 31 31 30 30 29 27 27 26 25 24 23 22 21 19 18 18 17 17 16 16 16 15 15 15 15 15 15 15 15 14 14 15 16 16 18 19 19 19 18 19 20 20 20 20 20 21 23 24 24 21 18 17 17 17 17 17 18 18 17 17 17 18 19 18 18 17 18 22 29 32 32 31 30 28
23 24 24 25 26 28 29 30 31 31 30 31 31 32 31 31 30 29 28 27 26 26 25 24 22 21 20 19 19 19 18 18 17 17 17 17 17 17 17 16 16 16 16 17 17 17 19 20 19 19 19 20 20 21 20 19 19 21 23 24 22 20 17 17 17 18 18 17 17 18 17 17 17 18 20 20 20 20 22 27 31 32 31 30 29
21 24 25 25 25 26 29 30 31 31 31 30 31 32 32 32 31 30 30 29 29 28 28 27 25 24 23 22 21 21 21 20 19 19 19 19 19 19 18 18 18 17 17 18 18 18 18 20 20 19 19 19 20 20 20 20 19 19 21 23 23 21 19 17 17 18 18 17 17 18 18 18 18 18 20 21 22 21 22 25 29 29 29 29 29
19 22 25 25 25 26 29 31 32 32 32 31 30 31 32 32 32 31 31 31 30 30 30 29 28 26 25 24 24 24 23 22 21 21 20 20 20 20 20 19 19 19 19 19 19 19 19 19 20 20 19 19 20 20 20 20 19 19 20 21 23 22 20 18 17 17 18 17 17 17 18 19 19 19 21 22 23 22 21 23 27 27 26 27 28
18 20 23 25 27 27 28 30 33 34 34 31 30 30 31 32 31 30 30 31 31 31 31 31 29 28 27 27 27 26 25 24 23 23 22 22 22 21 21 20 20 20 20 20 20 20 19 19 20 21 20 20 20 21 21 20 20 19 19 20 21 22 22 20 18 18 18 18 18 18 19 20 21 21 21 22 23 22 21 23 26 26 25 26 28
18 19 22 25 28 29 29 31 33 34 34 32 30 30 31 32 31 30 30 31 31 31 31 31 30 29 28 28 29 28 27 25 25 24 24 24 23 22 22 21 21 21 20 21 21 21 20 20 20 21 21 20 21 22 22 21 20 20 19 19 20 21 22 21 19 18 19 20 20 20 20 20 21 20 20 20 22 23 23 23 26 26 25 27 28
20 19 20 24 27 29 31 31 31 32 33 32 31 30 31 32 32 31 30 31 31 31 31 31 30 30 30 30 30 30 28 27 26 25 25 25 25 24 23 22 22 22 21 22 22 22 21 21 21 21 22 21 21 22 23 22 22 21 20 19 19 20 21 22 21 19 19 20 21 22 21 21 22 21 20 20 21 23 24 25 28 28 26 27 28
22 21 21 24 26 28 30 31 31 31 32 32 32 31 32 33 33 32 32 32 31 31 31 30 30 30 30 31 31 30 29 28 27 26 26 26 26 25 24 23 23 22 22 22 23 23 23 22 22 22 22 22 22 23 23 24 23 22 22 21 20 20 20 22 21 20 19 20 21 22 23 23 24 23 22 22 23 24 25 26 28 29 28 28 27
24 23 22 23 24 25 28 30 31 31 31 32 33 32 32 32 33 34 34 33 33 33 32 31 30 30 31 31 31 31 30 28 27 27 27 27 26 25 25 24 24 23 23 23 24 24 24 23 23 23 23 23 23 24 24 25 25 24 23 23 21 20 20 21 21 21 20 19 21 23 24 25 26 26 24 23 24 25 26 27 28 28 29 30 30
25 24 24 23 23 23 25 28 30 32 32 33 33 33 32 32 33 34 35 35 35 35 34 33 33 32 31 31 32 31 31 29 28 28 28 28 27 26 26 25 25 25 25 24 24 25 25 25 24 24 24 24 24 25 26 26 26 25 25 24 23 22 21 21 21 21 20 20 20 22 25 26 28 29 27 25 25 26 26 26 27 28 29 31 32
27 26 25 25 24 23 24 26 29 31 33 34 34 34 34 33 33 35 35 36 36 37 36 36 35 34 33 32 33 32 31 30 29 29 29 29 28 27 27 26 26 26 26 26 26 26 26 26 25 25 26 26 26 26 27 27 28 27 26 26 25 24 22 22 22 22 22 21 20 21 24 26 29 30 29 28 28 28 27 28 29 30 30 31 31
28 27 27 26 25 23 23 25 28 31 33 35 35 34 34 35 36 36 36 36 36 37 38 38 37 36 35 35 34 34 32 31 31 30 30 30 29 28 28 28 28 27 27 27 27 27 27 27 27 26 27 28 28 27 28 29 29 29 28 27 27 26 25 23 23 23 23 22 22 22 23 26 29 30 30 29 30 30 30 30 31 31 31 30 30
30 29 28 28 26 24 23 25 28 30 32 34 35 35 35 36 37 37 36 36 37 38 39 39 38 38 37 37 36 35 34 33 32 31 31 32 31 30 30 30 29 28 28 28 28 28 29 29 29 28 28 29 29 29 30 30 30 30 30 29 29 28 27 25 25 24 24 24 23 23 24 25 28 31 31 31 31 32 32 32 32 32 32 32 32
32 31 30 29 28 26 26 27 28 29 31 32 34 36 37 37 37 37 37 37 39 39 39 39 39 39 39 38 38 37 36 35 34 33 33 33 33 32 32 32 31 30 30 30 30 30 30 30 30 30 30 30 31 31 32 32 31 31 31 31 30 30 29 28 27 26 25 25 25 24 25 26 28 31 32 32 33 33 34 34 33 32 32 33 33
34 33 32 32 30 28 28 29 29 29 30 32 34 36 38 39 38 37 37 39 40 41 41 40 41 40 40 39 38 38 38 37 36 35 35 35 35 35 35 35 34 33 32 32 32 32 32 32 32 32 31 32 32 33 34 34 33 32 32 32 32 31 30 30 29 28 27 26 26 26 26 27 29 31 33 34 34 34 35 35 32 31 31 33 34
36 35 35 34 32 31 30 29 29 30 31 32 34 36 39 40 40 38 38 39 40 41 41 41 42 42 40 39 38 38 38 37 37 37 38 38 38 38 38 37 37 36 35 35 35 35 35 35 34 34 33 33 34 35 36 36 35 34 33 33 33 32 32 31 31 31 29 28 27 27 27 28 29 31 33 34 35 36 36 36 34 32 32 32 33
38 37 37 36 35 34 32 31 30 30 32 33 35 36 38 40 41 40 40 39 39 40 39 40 41 42 42 40 39 39 38 38 38 39 40 40 40 40 41 40 40 39 38 38 38 37 38 38 37 37 35 35 35 37 38 38 37 36 35 34 34 33 33 32 33 33 32 30 29 29 29 30 30 31 32 33 35 36 36 36 36 34 33 32 32
40 40 39 38 37 36 34 33 31 31 32 34 35 37 38 40 41 42 42 41 40 39 37 37 39 41 42 42 41 40 39 39 40 41 42 42 42 42 42 42 41 40 39 39 39 40 40 40 40 39 38 37 38 39 40 40 39 38 36 35 35 34 34 34 34 34 33 32 32 31 31 32 32 32 33 33 34 36 37 37 37 37 36 34 34
42 42 40 39 39 38 37 35 33 32 33 34 36 37 38 40 41 43 43 43 42 40 37 37 38 39 40 41 42 42 41 41 43 44 43 43 43 44 44 43 41 40 40 40 41 41 41 41 41 40 39 39 39 40 41 41 40 39 38 37 36 35 35 35 35 34 34 33 33 33 34 34 33 33 34 34 35 37 38 39 40 39 37 36 35
44 44 43 42 42 41 39 37 35 34 34 35 36 38 39 40 42 43 44 44 43 42 40 39 39 39 39 40 43 44 44 44 46 46 45 45 45 45 45 43 42 41 41 42 42 43 43 42 42 41 40 40 40 41 41 41 41 41 39 38 37 36 36 36 36 35 34 34 35 35 35 35 35 35 35 35 36 37 38 40 41 41 39 38 37
46 46 46 45 44 42 40 39 37 36 35 36 37 39 40 41 42 44 45 45 45 44 42 41 40 39 39 40 43 44 45 46 47 47 46 46 45 45 45 44 43 42 43 44 44 44 44 43 43 42 41 40 40 41 42 41 42 42 41 40 39 38 37 37 37 36 36 36 36 36 36 36 37 37 37 37 37 38 39 40 42 42 41 40 39
48 48 47 46 44 42 41 40 39 37 37 37 38 40 41 42 42 44 45 46 47 46 45 44 43 42 41 41 42 43 43 44 46 47 46 45 45 45 44 44 44 44 44 45 45 44 44 44 43 42 41 40 40 41 41 42 42 42 42 41 40 40 39 38 37 37 37 37 38 38 37 38 38 39 39 38 38 39 40 41 42 43 43 42 41
49 48 47 46 45 44 43 42 40 38 38 37 37 39 41 42 43 44 45 46 47 48 47 47 46 46 46 45 45 45 44 44 45 46 45 45 45 45 45 45 45 45 45 45 44 43 43 43 42 41 41 40 39 40 41 42 42 42 42 42 41 40 40 39 38 38 38 39 39 39 39 40 40 40 40 40 40 41 41 42 43 44 44 44 43
49 48 47 47 47 46 45 43 41 39 38 38 38 39 41 42 44 44 45 46 48 49 49 49 49 49 49 48 48 47 46 46 46 46 46 45 45 45 45 45 45 45 44 43 42 41 41 40 40 40 40 39 38 39 40 41 41 42 42 42 41 41 40 39 39 39 39 40 40 40 40 41 42 42 42 41 41 42 42 42 43 44 45 45 44
50 50 50 49 48 47 46 43 41 39 38 38 39 39 40 41 43 43 44 46 48 49 50 51 51 50 50 50 48 47 46 46 46 46 46 45 45 45 44 44 44 44 43 42 40 39 38 38 39 39 39 38 38 39 39 40 40 41 41 41 41 40 40 40 40 40 41 41 41 42 42 42 43 43 43 42 42 43 43 43 44 45 45 46 46
52 53 53 51 50 48 47 44 42 40 40 39 39 40 40 41 42 42 44 45 47 49 50 51 52 52 51 51 50 49 47 46 45 45 44 43 43 42 42 43 43 43 42 41 39 37 36 36 37 37 38 38 38 38 38 38 39 40 40 40 39 39 40 40 41 41 42 42 42 43 44 44 44 44 44 44 44 43 43 44 45 45 45 46 47
55 56 55 53 51 49 47 45 43 41 41 40 40 41 41 42 43 43 43 44 46 48 49 51 52 53 53 52 51 50 49 47 46 45 44 42 41 41 41 42 42 41 41 39 37 35 35 35 35 36 37 37 37 37 37 37 38 38 39 38 39 39 40 41 42 43 43 43 44 45 45 45 45 45 45 44 44 44 43 44 45 45 45 46 46
58 58 56 54 53 50 48 46 44 43 43 42 42 42 43 43 44 44 44 45 46 47 48 50 51 53 53 53 53 52 50 49 47 45 44 42 40 40 41 41 40 39 39 37 36 36 36 36 35 35 36 37 37 37 37 37 37 37 38 38 39 39 40 41 42 44 44 44 45 46 47 46 46 46 45 45 45 44 44 44 44 45 45 46 46
59 58 57 55 52 50 48 47 46 45 45 44 43 43 44 45 44 45 45 45 46 46 46 48 50 52 53 54 53 52 52 50 48 47 45 44 43 42 42 41 40 39 38 38 38 38 38 37 37 36 37 37 37 37 37 37 37 38 39 39 40 41 42 43 44 45 45 46 46 48 48 47 47 47 46 46 45 44 43 43 44 45 45 46 46
60 59 58 55 53 50 49 48 47 46 45 44 44 44 45 45 45 44 45 45 45 46 46 47 49 50 52 52 53 53 52 51 50 49 49 47 46 46 45 43 42 41 40 40 40 40 40 39 38 37 38 38 38 38 38 39 39 39 40 40 41 42 43 44 45 46 46 47 49 50 51 50 48 48 47 45 44 43 42 42 44 46 46 47 47
61 60 58 55 53 52 51 50 48 47 46 45 45 45 45 45 45 45 44 45 45 46 47 47 48 49 50 51 52 53 53 53 52 52 51 50 49 48 47 46 44 43 43 43 43 42 42 41 40 40 40 40 40 40 40 40 41 42 42 42 43 44 45 46 47 48 49 50 51 52 51 49 46 44 43 43 42 42 42 44 46 47 48 48 49
62 60 58 56 54 54 53 51 49 48 47 46 46 46 45 46 46 45 45 45 45 46 46 47 48 49 49 49 51 53 53 53 53 53 52 52 51 50 49 48 47 45 45 45 45 45 43 43 43 42 42 43 43 43 43 43 43 44 44 44 45 47 48 49 49 50 51 51 51 49 47 45 42 42 42 43 44 45 46 47 48 49 49 50 51
62 60 58 56 56 55 53 51 50 49 48 47 47 47 47 47 47 47 46 45 45 46 46 47 47 48 48 49 50 51 52 53 53 53 53 53 53 52 51 50 49 48 47 47 48 47 46 45 46 46 46 46 46 46 46 47 47 47 47 47 48 49 49 49 49 50 51 49 47 46 45 43 42 44 46 47 48 49 49 50 51 51 52 53 54
63 61 59 57 56 55 54 53 52 50 49 49 48 49 48 48 48 48 47 46 46 45 45 46 47 47 46 46 47 49 50 51 51 52 53 54 54 54 53 52 51 51 50 50 50 49 49 49 49 49 49 49 49 49 49 49 50 50 50 50 50 50 49 49 49 50 49 46 44 44 44 44 45 47 49 49 49 50 51 52 53 53 54 55 55
62 61 60 57 57 57 55 54 52 51 50 50 50 49 49 48 48 48 48 47 46 45 46 47 47 45 44 45 45 46 47 48 49 50 52 53 54 54 54 54 54 53 52 51 52 52 52 51 51 51 51 51 50 50 51 52 54 54 53 53 53 52 50 49 49 48 45 43 42 42 43 43 46 48 49 49 50 51 53 54 55 55 55 57 58
63 61 59 57 58 58 56 54 53 52 52 52 52 51 50 49 48 48 48 47 47 47 48 49 47 44 44 44 44 44 45 46 47 48 49 50 51 52 53 53 54 53 52 52 53 54 53 53 53 53 53 52 52 53 54 55 55 54 53 52 52 50 47 44 44 44 43 42 42 43 44 46 48 49 50 50 51 52 53 55 56 57 58 60 62
63 62 60 59 59 58 56 55 54 54 54 54 53 52 51 50 49 48 47 48 48 49 49 49 47 45 44 44 44 44 45 45 44 44 46 47 48 49 50 50 51 51 52 53 53 54 54 53 54 54 53 52 52 52 51 49 48 47 48 49 49 49 46 42 41 42 44 44 45 47 49 50 51 52 53 53 53 54 55 57 58 59 61 63 65
64 63 62 61 59 59 58 57 56 55 55 55 54 53 52 52 50 49 49 49 50 50 49 49 48 46 44 43 44 44 45 44 43 43 44 46 47 47 48 48 49 50 51 51 52 52 53 53 53 53 53 52 51 51 50 49 49 49 49 49 49 49 47 45 44 46 49 50 51 52 53 53 54 55 56 57 57 57 58 59 60 62 64 65 66
66 65 64 62 60 60 59 59 58 58 58 57 56 55 55 53 52 51 51 50 50 50 50 49 48 46 45 45 45 44 44 44 44 44 45 46 47 47 46 46 47 48 49 49 50 51 51 51 51 51 51 50 50 49 49 50 50 49 47 46 46 46 47 50 51 52 53 54 54 54 55 56 56 57 58 59 60 60 61 61 63 65 66 67 68
67 66 65 63 62 62 61 61 60 60 60 59 58 57 57 55 54 54 53 52 51 51 50 49 48 48 47 47 46 45 45 45 45 45 45 46 46 46 46 46 46 47 47 47 47 48 48 48 48 48 48 48 47 47 46 46 46 44 42 42 42 42 46 50 52 53 54 56 55 55 56 57 58 59 60 61 62 63 65 66 67 68 68 70 71
68 67 66 65 64 63 63 63 62 61 61 61 60 59 58 57 57 56 55 54 53 52 51 50 50 50 49 49 48 47 47 46 46 45 46 46 47 47 46 46 46 46 46 45 45 46 47 46 46 45 46 46 46 45 44 43 42 40 40 42 44 45 47 51 53 54 56 57 56 57 59 61 62 63 64 65 66 67 69 70 70 71 72 73 75
69 68 67 67 66 66 65 65 64 63 63 63 62 61 60 59 58 58 57 55 54 53 52 51 51 51 51 50 50 49 48 48 47 47 48 48 48 47 47 47 47 47 46 46 46 46 45 44 43 44 45 46 45 44 43 43 42 42 44 50 53 53 53 54 55 57 58 59 59 61 64 66 67 68 69 69 70 71 73 74 75 75 76 76 77
68 68 68 68 67 66 66 65 65 65 65 65 64 63 63 61 60 58 57 56 55 53 53 52 52 53 53 52 52 51 51 50 50 50 50 49 49 49 49 49 48 48 47 47 46 45 43 42 43 45 47 48 48 48 48 47 47 47 49 52 54 54 55 57 59 61 62 63 65 67 69 70 71 72 73 74 75 75 76 77 78 78 78 79 80
68 68 68 69 70 69 68 67 67 67 66 65 63 62 61 60 59 58 57 57 56 56 55 55 55 55 54 54 54 54 53 52 52 52 52 51 51 51 51 51 51 50 50 49 48 47 47 47 47 48 50 51 52 51 51 50 51 52 53 54 56 58 60 61 62 64 67 69 70 72 73 74 75 76 77 77 78 77 77 78 79 80 81 81 82
70 68 66 66 67 68 68 67 66 64 63 61 60 59 58 57 57 57 58 59 60 60 60 59 58 57 57 56 56 56 55 54 54 54 54 54 54 53 53 53 53 53 52 51 50 50 51 51 50 51 52 54 54 54 54 55 56 57 57 58 59 61 62 64 65 68 71 73 75 75 76 77 77 77 77 77 78 78 79 80 81 82 83 83 84
69 68 67 67 68 68 67 68 67 66 64 63 62 61 61 60 61 62 63 64 64 64 64 63 62 61 60 59 59 58 57 57 56 56 56 55 56 55 55 56 56 55 55 54 54 54 55 55 55 55 57 58 59 59 59 60 61 62 63 63 64 65 67 69 71 72 74 75 76 76 76 76 76 76 76 77 78 80 80 81 82 83 84 85 86
69 70 72 74 74 72 70 71 72 73 72 70 68 66 66 67 68 68 68 67 67 66 66 65 64 63 63 62 61 60 60 59 59 58 58 57 57 58 58 58 58 59 59 58 58 59 59 59 60 60 61 61 62 63 63 64 65 66 66 67 68 68 69 71 72 73 74 75 75 75 75 76 76 77 78 79 80 82 83 84 85 86 86 87 87
75 76 78 79 78 76 74 74 75 77 77 76 75 74 73 72 72 72 71 70 69 68 67 67 66 65 65 64 63 63 62 62 62 61 61 60 60 60 60 60 60 61 61 62 62 63 63 63 64 64 64 65 65 66 67 67 69 69 70 71 72 72 73 73 74 74 75 75 76 76 77 78 78 79 79 80 81 83 85 87 88 88 89 89 89
81 81 82 81 80 78 77 76 75 76 76 77 76 76 75 75 74 74 73 72 71 70 69 68 67 67 66 66 65 65 64 64 64 64 64 63 63 63 63 63 63 63 64 64 65 65 66 66 66 67 67 67 68 69 70 71 72 73 74 75 76 76 76 76 76 77 78 78 79 79 80 80 80 80 80 81 84 86 88 89 91 91 91 90 91
82 84 84 83 81 79 78 78 78 78 77 77 76 76 77 77 77 76 75 74 72 71 70 69 69 68 68 68 67 67 66 66 66 65 65 65 65 65 65 65 66 66 66 67 67 68 68 69 69 69 70 70 71 72 73 74 75 76 78 78 79 79 79 79 79 80 80 80 81 81 81 81 81 81 83 85 87 89 91 92 93 92 91 91 91
Wind_Direction
220 219 217 215 216 220 225 229 230 227 226 228 229 231 234 236 238 241 244 247 250 253 256 258 262 266 270 274 278 282 286 290 296 301 305 308 310 311 311 312 316 323 329 335 340 345 348 350 353 356 355 354 358 0 1 4 7 8 8 6 5 3 2 3 5 8 8 7 9 11 16 24 27 26 28 30 24 18 17 17 12 5 3 3 5
223 223 222 219 216 217 222 228 232 231 229 230 230 232 234 236 239 242 245 248 252 254 257 259 262 266 269 273 276 279 282 285 290 294 298 302 304 305 305 305 308 313 318 324 331 337 342 345 347 350 351 350 352 356 358 359 3 6 6 5 2 0 358 356 356 360 2 1 1 2 7 14 18 17 15 16 12 7 12 14 7 1 3 6 10
227 224 225 225 221 218 220 227 232 233 233 232 233 234 236 237 239 242 245 249 252 255 258 260 262 265 268 271 274 276 278 281 285 289 293 296 299 301 302 303 303 305 309 314 321 329 336 339 341 344 346 345 347 351 353 355 358 2 4 4 1 358 355 352 349 351 354 356 355 353 355 2 8 9 7 9 9 8 13 12 2 359 1 5 9
236 228 224 225 224 221 220 226 232 235 235 235 235 237 238 239 240 242 245 248 251 254 257 260 262 265 267 270 272 274 276 278 281 284 288 291 294 297 299 300 300 300 302 307 313 321 328 334 336 338 341 341 341 345 348 351 353 356 360 1 0 357 354 349 344 344 346 349 349 347 346 349 357 1 360 1 4 7 13 10 359 356 0 2 5
246 238 230 224 222 221 221 223 229 235 237 236 236 238 240 241 241 242 244 247 250 253 256 259 262 264 266 269 270 271 273 275 278 280 283 286 289 292 295 297 297 297 298 301 307 313 320 327 330 332 335 336 336 338 342 346 347 350 354 357 359 357 354 348 342 338 338 340 340 340 338 339 345 352 354 356 359 2 7 4 355 355 1 2 4
248 245 239 230 223 221 221 222 226 232 236 237 236 238 241 243 244 244 245 247 249 252 255 258 260 262 264 266 268 269 271 272 274 276 279 282 284 287 290 292 294 294 295 296 300 306 312 318 324 327 329 332 332 333 335 339 342 344 347 351 355 355 354 350 342 336 333 331 330 330 331 332 337 346 350 351 352 352 354 353 349 352 2 3 3
243 244 243 237 230 224 223 223 225 230 235 238 238 238 240 243 246 246 246 247 249 251 254 256 258 260 262 264 265 266 267 269 271 273 276 278 281 283 286 288 290 292 292 294 295 300 305 311 316 321 324 327 328 328 329 332 336 338 340 343 348 351 352 351 345 337 330 326 324 324 326 328 330 335 339 339 340 342 343 342 340 345 358 3 0
239 240 241 241 237 232 228 226 227 230 234 237 238 238 240 242 245 246 246 247 248 249 252 254 256 259 260 261 262 264 265 266 268 270 273 275 277 280 283 285 287 288 290 290 291 294 299 304 309 314 318 321 323 324 325 326 329 332 334 336 341 345 348 349 347 341 332 325 321 319 320 320 321 324 325 326 329 332 333 334 335 338 351 1 359
237 238 238 239 240 239 235 232 230 231 234 237 238 238 237 240 243 245 245 246 247 247 249 251 253 255 257 258 260 261 263 264 266 268 270 272 275 277 280 282 283 285 287 288 288 290 293 297 302 306 311 315 318 319 321 322 323 326 328 331 333 338 342 345 346 344 337 326 318 315 314 313 314 316 317 319 322 324 325 329 332 337 346 353 353
237 238 240 242 243 242 240 237 234 232 234 236 239 239 237 237 240 242 244 245 246 247 248 249 250 251 253 255 257 259 261 262 263 265 267 269 272 274 276 279 280 282 284 284 285 287 288 292 296 300 304 308 312 315 316 317 319 320 323 325 327 329 333 337 341 343 341 332 321 314 312 311 310 312 314 316 318 318 321 326 331 337 343 344 345
237 238 241 243 245 243 241 241 238 235 234 235 238 240 240 238 237 239 242 244 246 247 248 248 249 249 251 253 255 257 259 261 262 263 265 267 269 272 274 276 278 279 281 282 283 284 285 287 291 295 299 302 306 310 311 312 314 316 318 320 321 323 326 329 333 337 339 337 327 317 313 311 311 311 313 314 314 315 318 321 325 332 338 338 341
238 241 243 245 246 244 243 241 240 238 236 235 236 239 241 240 238 238 239 241 243 246 247 249 249 250 251 252 254 256 258 260 261 261 263 265 267 269 271 273 275 276 278 279 281 281 282 284 288 292 295 298 301 305 307 308 310 311 313 315 316 317 319 322 325 330 334 335 331 323 316 313 311 310 311 312 311 312 314 316 319 325 330 335 340
241 243 245 247 248 249 245 242 241 240 239 237 237 238 240 242 241 239 238 239 241 244 246 248 249 250 251 252 254 256 257 259 259 261 262 264 265 267 268 270 271 273 275 277 278 279 281 282 285 289 292 294 297 300 303 305 306 307 310 311 311 312 314 316 317 322 328 331 331 327 321 314 310 308 310 310 309 310 312 315 317 321 327 333 338
242 243 245 247 249 250 247 243 240 239 240 240 239 238 239 241 243 243 242 241 240 241 244 246 248 250 251 252 254 256 257 257 258 259 261 262 264 265 266 267 269 270 272 274 276 277 279 281 284 286 289 291 294 296 298 301 303 304 305 307 307 308 310 311 312 315 321 325 327 327 323 317 311 308 309 311 310 310 313 315 318 321 326 330 333
240 242 244 246 248 248 246 245 242 240 239 240 240 239 239 241 243 245 246 245 242 241 242 244 246 248 249 250 252 254 255 257 258 259 260 261 262 263 264 265 267 269 270 272 273 275 277 279 282 284 287 289 292 294 295 297 300 302 302 302 304 305 306 307 308 310 315 320 323 324 322 318 314 311 311 311 312 313 314 316 319 322 324 324 325
239 241 243 245 246 247 246 247 246 243 240 239 239 239 239 240 242 244 247 250 249 247 244 244 245 247 248 248 250 252 254 256 257 258 259 261 261 262 264 265 266 268 269 270 271 273 274 276 279 281 284 287 289 291 292 294 297 298 298 298 300 302 303 304 305 306 310 314 318 320 319 317 315 313 312 311 311 312 312 314 316 317 317 318 320
237 239 242 244 245 246 247 248 248 246 242 239 239 239 239 240 240 241 245 250 253 253 251 249 248 248 248 248 249 251 253 255 257 258 259 260 260 261 263 265 266 267 268 269 271 272 274 275 276 278 281 284 286 287 289 291 294 295 296 295 296 299 301 301 302 303 306 310 313 315 316 315 314 314 312 310 309 309 310 311 312 312 312 315 318
236 238 240 243 245 246 248 249 250 248 245 242 241 241 241 241 241 240 241 246 252 255 256 254 252 250 249 248 248 250 251 253 256 257 258 259 260 261 262 263 265 266 268 270 271 272 273 274 275 276 278 281 283 284 286 288 290 292 292 292 293 296 299 299 299 300 303 306 309 311 312 313 313 313 312 309 307 306 306 306 307 308 309 310 312
235 237 239 242 244 246 247 249 250 250 247 244 242 242 242 242 242 241 240 242 247 252 255 255 254 252 250 248 247 248 250 252 254 255 256 257 259 260 261 262 264 266 268 269 271 272 273 274 275 276 277 279 280 282 283 285 287 288 289 289 291 294 296 296 296 297 300 303 305 307 309 311 312 312 311 309 305 302 301 301 302 303 304 305 307
233 236 238 240 243 245 246 248 250 250 249 246 244 243 243 243 243 243 242 241 243 247 252 254 254 254 253 250 247 247 247 249 251 252 254 255 257 258 260 261 263 266 268 269 270 271 272 273 274 275 276 277 278 279 281 283 284 285 286 287 289 291 293 294 293 295 297 299 301 304 306 309 310 310 310 308 305 301 299 299 300 300 301 303 305
233 235 237 239 241 244 247 249 251 252 251 248 245 244 244 243 243 243 243 243 242 243 247 251 253 254 254 252 249 247 246 247 248 250 252 254 255 257 259 261 263 265 267 268 268 270 271 272 273 274 275 276 276 277 279 281 282 283 284 285 287 289 291 292 292 293 294 295 298 301 304 306 308 308 308 306 304 300 298 297 298 299 300 301 303
233 236 238 240 243 246 249 251 253 254 253 251 248 246 245 244 244 244 244 243 243 242 243 246 249 251 253 254 253 251 249 248 248 250 251 253 255 257 259 261 263 265 266 267 267 269 271 272 273 274 275 275 275 276 277 279 280 281 282 284 286 287 289 290 290 291 292 293 296 299 302 305 306 306 306 306 304 302 299 297 297 298 299 299 300
234 237 240 243 245 248 250 251 254 256 257 256 253 250 248 247 245 245 245 245 244 244 243 244 246 248 249 251 252 253 253 252 252 253 254 255 256 257 259 261 264 266 267 268 269 270 271 273 274 275 276 276 276 276 276 277 278 279 281 283 284 286 288 289 289 290 291 292 295 299 302 304 305 305 305 305 304 302 300 298 298 298 299 299 300
235 237 240 243 245 247 249 252 255 257 259 260 257 254 251 250 248 247 246 246 245 245 244 244 245 247 248 249 249 250 251 252 253 254 255 255 256 258 260 263 266 268 270 271 271 272 273 274 276 277 278 278 277 276 276 276 276 278 279 281 283 285 286 287 287 288 290 292 296 299 301 303 303 304 304 304 303 302 300 299 298 298 298 299 300
235 237 239 241 244 247 249 252 255 258 260 261 259 256 253 253 252 251 250 248 247 246 246 246 246 248 249 251 251 251 251 252 253 255 256 257 258 260 263 266 268 270 271 273 274 275 276 276 278 278 279 280 278 277 276 276 276 277 278 280 282 283 285 286 286 288 289 292 296 299 300 301 302 303 303 303 302 301 300 299 298 298 298 298 300
235 236 238 240 243 246 249 252 255 257 259 260 259 256 254 253 254 254 253 251 249 248 247 247 247 248 250 252 254 255 255 256 257 258 259 260 262 263 266 268 270 271 272 274 275 277 278 278 278 278 279 279 278 276 276 276 275 276 277 279 281 282 284 285 286 288 291 294 297 298 299 300 301 301 301 301 300 300 299 298 297 296 297 298 300
234 235 237 240 243 245 248 251 253 255 258 259 258 256 254 252 253 254 254 253 252 250 249 248 248 249 250 252 254 256 257 258 260 261 262 263 264 266 267 268 270 271 272 275 277 279 279 278 277 277 278 278 278 277 277 277 276 276 278 280 281 282 284 286 287 289 292 295 297 298 298 299 299 298 298 298 298 298 298 297 295 295 296 297 300
234 236 238 241 243 245 247 250 252 254 256 257 257 255 253 251 251 251 252 253 253 252 251 250 249 250 251 252 254 255 257 259 260 261 262 263 263 265 265 266 268 270 273 276 277 277 276 275 275 275 276 276 277 277 277 277 277 278 279 281 281 283 284 286 288 290 293 295 296 296 297 297 297 296 297 296 296 296 296 294 294 294 296 297 300
236 238 241 243 245 247 248 249 251 253 255 256 256 255 253 252 251 251 251 251 252 252 252 252 251 251 251 252 253 255 256 258 259 260 261 261 260 261 262 264 267 270 273 274 274 273 273 273 274 275 276 276 277 277 277 277 278 279 279 280 282 283 284 286 288 290 293 294 295 295 295 295 295 295 295 294 293 294 293 292 293 294 295 297 299
237 240 242 245 247 248 249 250 251 253 255 257 258 257 255 253 253 252 252 252 252 252 253 253 253 252 252 252 253 254 255 257 259 259 260 260 259 260 261 263 266 268 269 271 272 272 273 274 276 277 277 278 278 277 277 277 278 278 279 281 282 283 285 287 288 290 292 292 293 293 293 293 292 292 292 291 291 291 291 292 294 295 295 297 298
239 241 243 245 247 247 248 250 252 254 257 258 259 257 256 255 254 254 254 253 253 252 252 253 253 253 253 253 254 254 255 255 257 258 260 260 261 261 262 263 264 266 267 269 270 272 273 275 276 276 276 276 276 276 276 277 278 278 279 281 283 284 285 287 288 289 290 290 291 292 292 292 292 292 291 290 289 289 290 294 297 297 296 297 298
240 242 244 246 246 247 248 249 252 254 257 258 258 257 255 254 254 254 254 253 253 253 252 253 253 254 254 255 254 255 255 255 256 258 259 260 261 262 263 263 264 265 267 268 269 271 272 274 275 274 274 274 273 273 274 275 277 279 280 281 283 284 285 286 287 287 288 290 292 293 294 294 293 292 291 290 288 288 291 296 299 299 298 298 297
241 243 245 245 246 246 248 250 252 254 256 257 257 256 255 253 253 253 254 253 253 253 253 253 254 254 254 254 255 255 255 256 256 257 258 259 260 262 263 264 265 265 266 268 269 270 271 272 273 273 272 272 272 272 273 276 278 279 280 281 282 283 284 285 286 288 290 292 293 294 294 293 292 290 290 291 291 292 295 297 298 299 298 298 298
242 244 245 245 246 247 249 251 253 254 255 256 256 255 254 253 252 253 253 254 254 254 254 254 254 255 254 254 255 255 256 256 256 257 257 259 260 262 263 264 265 266 266 267 268 269 270 270 271 271 271 271 272 273 275 277 278 278 279 280 281 282 284 286 288 289 290 291 290 290 290 289 289 290 292 293 295 296 296 297 298 299 299 299 298
243 244 244 245 246 248 250 252 253 254 255 255 255 255 254 253 253 253 253 254 254 254 255 255 255 255 255 256 256 256 257 257 258 258 259 259 260 261 262 263 264 265 265 266 267 269 269 269 270 271 272 273 274 275 277 278 278 279 280 280 281 283 285 286 286 287 288 287 285 284 284 285 288 291 293 294 295 296 296 297 299 300 299 299 299
243 244 245 246 248 249 251 252 253 254 254 254 254 254 254 253 253 253 253 254 254 254 254 254 254 255 256 256 256 257 258 258 258 259 259 260 260 261 262 263 263 264 265 266 267 268 268 269 270 271 272 274 276 277 278 278 278 279 279 280 282 284 285 285 286 288 289 288 284 280 281 285 290 292 293 294 295 295 296 297 298 298 297 298 298
243 244 245 246 248 249 251 252 252 253 253 253 253 253 253 253 254 254 255 255 255 254 253 253 253 254 254 255 256 256 257 257 258 259 260 261 262 262 263 263 264 265 265 266 266 267 268 269 270 271 272 274 276 277 278 278 278 278 278 281 282 283 283 286 290 292 291 289 286 283 283 288 292 293 293 294 295 295 295 296 296 296 296 296 296
242 244 245 246 247 249 250 250 250 251 251 252 253 253 253 253 254 254 255 255 255 254 254 254 254 254 254 255 256 257 257 258 259 261 262 263 264 264 264 265 266 266 266 266 266 268 269 269 270 271 273 274 275 276 278 279 279 280 282 284 285 284 283 286 290 290 288 287 286 286 286 289 292 293 293 293 294 294 293 294 294 293 293 294 295
243 244 245 246 248 250 250 250 251 251 252 252 253 253 253 253 254 254 254 254 255 256 256 256 256 255 255 255 256 257 258 260 260 261 262 263 263 264 265 265 266 266 266 267 268 269 270 270 271 271 272 272 273 274 275 277 279 282 285 287 287 285 285 285 285 286 286 285 286 287 288 290 291 291 291 292 293 292 291 291 291 292 293 294 296
243 244 245 246 247 248 249 250 251 252 252 252 253 253 253 253 253 253 254 254 255 256 258 258 258 258 257 256 256 257 258 259 260 260 261 262 263 264 265 266 267 267 268 269 269 269 270 271 271 272 273 274 274 274 275 276 279 282 284 283 282 284 286 286 285 284 284 285 287 289 290 290 290 289 289 290 289 288 288 289 291 292 294 295 296
244 245 246 247 247 248 249 250 250 251 252 252 252 253 253 253 253 253 254 254 255 256 258 259 260 260 259 258 258 258 258 259 260 261 263 264 265 266 266 267 267 267 268 268 269 270 271 271 272 273 274 275 275 275 275 275 276 278 279 278 278 282 285 285 283 282 282 284 286 287 287 286 286 286 285 286 285 285 287 289 291 293 294 295 296
244 246 247 247 247 247 248 249 249 250 251 251 252 252 253 253 253 253 254 254 255 255 257 258 259 259 260 260 260 260 261 262 263 264 265 265 266 266 267 267 267 268 268 269 269 270 271 272 274 275 276 276 276 277 276 275 275 276 277 276 274 275 276 277 279 280 281 281 282 282 282 282 283 283 284 285 286 287 289 291 292 294 295 296 297
246 247 248 248 248 248 249 249 249 249 249 250 251 251 252 252 253 253 254 254 254 254 255 257 258 260 261 262 263 263 263 264 264 265 265 266 266 267 268 268 268 269 270 270 270 271 271 273 275 276 276 276 276 276 276 275 272 270 271 271 272 272 272 273 275 278 278 278 278 280 281 282 284 285 287 289 290 291 293 294 295 296 297 297 298
247 248 248 248 249 248 248 249 250 250 250 250 250 251 251 251 252 252 253 254 253 253 254 257 259 261 262 263 264 264 265 265 265 265 266 267 267 268 268 268 269 269 270 270 271 272 271 271 271 272 272 273 273 274 275 274 271 267 266 267 270 272 273 274 275 276 277 277 278 279 281 283 286 288 290 292 293 294 295 296 297 297 298 298 298
243 245 247 248 248 247 247 248 250 250 249 248 248 248 249 249 250 251 253 254 254 255 257 259 261 261 262 262 263 264 264 265 266 266 267 268 268 269 270 270 271 271 271 272 272 272 271 271 272 273 273 274 275 275 276 276 275 273 270 269 270 271 274 275 276 276 276 278 279 281 283 285 288 290 292 294 295 296 296 297 298 298 299 299 299
240 240 241 242 243 244 245 246 246 246 244 244 245 247 249 250 251 252 254 256 258 259 260 262 262 261 262 262 262 263 264 265 266 267 268 269 270 271 271 272 273 273 274 274 273 273 273 273 274 274 275 276 277 277 278 278 278 277 276 275 275 275 275 276 277 278 279 280 282 284 286 288 289 291 293 295 296 297 298 298 299 299 299 299 299
237 236 235 235 237 240 242 243 243 243 244 244 245 247 250 253 254 255 257 259 260 261 262 263 263 263 263 263 263 264 265 265 266 266 267 269 270 271 272 273 274 274 274 273 273 273 273 274 274 274 274 275 276 276 277 277 278 278 279 279 279 279 279 279 280 281 282 283 285 286 288 289 291 292 294 295 296 297 297 298 298 298 298 299 299
231 233 235 236 238 240 242 243 245 246 247 247 247 249 251 254 256 257 259 260 260 261 262 262 263 263 264 264 264 265 265 266 266 267 268 269 270 271 272 273 273 273 273 273 273 273 273 273 273 273 274 274 275 275 276 276 277 278 279 279 280 280 281 282 283 284 285 286 287 288 289 290 292 293 294 295 296 296 297 297 298 298 298 299 300
231 234 236 238 239 241 243 245 247 248 248 249 250 251 252 254 255 257 258 259 259 260 261 262 263 264 264 264 265 265 265 266 267 267 268 269 270 270 271 271 272 273 273 273 273 273 274 274 275 275 276 276 276 277 278 278 279 279 280 281 281 282 283 284 285 286 287 288 289 290 290 291 292 292 293 294 295 297 298 299 299 299 300 300 300
232 234 236 238 240 241 243 244 245 246 247 248 250 251 252 253 254 255 256 257 258 259 261 262 263 263 264 265 265 266 266 267 267 268 269 269 270 270 271 271 272 272 273 273 274 274 275 276 276 277 277 278 278 279 279 280 280 281 282 283 284 285 285 286 287 288 289 289 289 290 290 290 290 291 293 295 298 300 301 301 301 300 300 300 300
233 234 236 238 240 241 243 243 244 245 247 249 250 251 252 253 254 254 255 256 257 259 260 261 262 263 264 265 265 266 267 267 268 269 269 270 270 271 271 272 273 273 273 274 275 275 276 276 277 277 278 278 279 280 280 281 282 282 283 284 285 286 287 287 288 288 289 289 289 289 290 290 291 292 295 297 299 301 301 301 300 299 298 298 298
Height
10990 10991 10992 10994 10996 10999 11001 11003 11005 11007 11010 11011 11013 11015 11016 11017 11018 11019 11020 11021 11022 11023 11024 11024 11025 11026 11026 11027 11027 11027 11027 11027 11027 11027 11026 11026 11025 11025 11024 11023 11023 11022 11021 11020 11019 11018 11017 11016 11015 11014 11013 11011 11010 11009 11008 11007 11006 11004 11002 11001 10999 10998 10997 10996 10995 10994 10992 10991 10990 10989 10988 10987 10985 10984 10982 10981 10979 10977 10975 10972 10970 10969 10967 10964 10962
10988 10989 10990 10992 10993 10996 10998 11000 11002 11004 11006 11008 11010 11012 11013 11014 11016 11017 11018 11019 11020 11021 11022 11022 11023 11024 11025 11025 11026 11026 11026 11026 11026 11026 11026 11025 11025 11024 11024 11023 11022 11021 11020 11020 11019 11018 11017 11016 11015 11014 11013 11011 11010 11009 11008 11007 11006 11005 11003 11001 10999 10998 10997 10996 10995 10994 10993 10991 10990 10989 10988 10987 10986 10984 10982 10981 10979 10977 10975 10972 10970 10968 10967 10965 10964
10986 10988 10989 10990 10992 10994 10996 10997 10999 11001 11003 11005 11007 11008 11010 11012 11013 11014 11015 11017 11018 11018 11019 11020 11021 11022 11023 11024 11024 11024 11025 11025 11025 11025 11025 11024 11024 11023 11023 11022 11021 11021 11020 11019 11018 11017 11016 11015 11014 11013 11012 11011 11010 11009 11008 11007 11006 11005 11003 11002 11000 10998 10997 10996 10995 10994 10993 10991 10990 10988 10987 10987 10986 10984 10982 10980 10979 10977 10975 10973 10970 10968 10966 10965 10964
10985 10986 10986 10988 10990 10992 10993 10995 10996 10998 11000 11002 11004 11005 11007 11009 11010 11012 11013 11014 11015 11016 11017 11018 11019 11020 11021 11022 11022 11023 11023 11024 11024 11024 11023 11023 11023 11022 11021 11021 11020 11020 11019 11018 11017 11017 11016 11015 11014 11013 11012 11010 11009 11008 11007 11006 11005 11004 11003 11002 11000 10999 10997 10996 10995 10994 10993 10992 10990 10988 10986 10985 10985 10983 10981 10980 10978 10977 10975 10974 10972 10969 10967 10965 10964
10983 10984 10984 10986 10988 10989 10990 10992 10993 10994 10996 10999 11001 11003 11004 11006 11007 11009 11010 11011 11012 11014 11014 11016 11017 11018 11019 11020 11020 11020 11021 11022 11022 11022 11022 11021 11021 11021 11020 11020 11019 11018 11018 11017 11016 11016 11015 11014 11013 11012 11011 11010 11008 11007 11006 11006 11005 11004 11003 11002 11000 10999 10997 10996 10995 10994 10993 10992 10990 10988 10986 10985 10984 10983 10981 10979 10977 10976 10976 10975 10973 10971 10968 10966 10964
10981 10982 10983 10984 10985 10986 10987 10989 10990 10991 10993 10995 10998 11000 11002 11003 11004 11006 11007 11008 11009 11011 11012 11013 11014 11016 11017 11017 11017 11018 11019 11019 11020 11020 11020 11019 11019 11019 11018 11018 11018 11017 11016 11015 11014 11014 11014 11013 11012 11011 11010 11009 11007 11006 11005 11005 11004 11003 11002 11002 11000 10999 10998 10996 10995 10993 10992 10991 10990 10988 10986 10984 10983 10982 10980 10978 10977 10976 10976 10975 10974 10972 10969 10966 10964
10979 10980 10981 10981 10982 10983 10984 10985 10986 10988 10990 10992 10995 10998 10999 11000 11001 11003 11004 11005 11006 11008 11009 11010 11012 11013 11014 11015 11015 11015 11016 11017 11017 11017 11017 11017 11017 11017 11016 11016 11016 11015 11014 11013 11012 11012 11012 11011 11011 11009 11008 11008 11006 11005 11004 11004 11003 11002 11001 11001 11000 10999 10998 10996 10994 10993 10991 10990 10989 10987 10986 10984 10983 10982 10981 10979 10977 10976 10975 10974 10973 10972 10969 10966 10962
10976 10977 10978 10979 10979 10981 10981 10983 10984 10985 10987 10989 10992 10995 10996 10997 10999 11000 11001 11002 11003 11004 11005 11007 11009 11010 11011 11012 11012 11012 11013 11014 11014 11014 11014 11014 11014 11014 11014 11013 11013 11013 11012 11011 11011 11010 11010 11009 11009 11008 11007 11006 11005 11004 11003 11002 11001 11001 11000 10999 10998 10998 10997 10995 10994 10992 10991 10989 10988 10986 10985 10984 10983 10982 10982 10980 10978 10976 10975 10973 10972 10970 10968 10966 10962
10974 10974 10975 10975 10976 10978 10979 10981 10983 10984 10985 10987 10988 10990 10992 10994 10995 10997 10998 10999 11000 11001 11002 11004 11006 11007 11008 11008 11009 11009 11010 11011 11012 11012 11011 11011 11011 11011 11011 11011 11011 11010 11010 11009 11008 11008 11007 11007 11007 11006 11005 11004 11003 11002 11001 11000 11000 10999 10998 10998 10997 10996 10996 10995 10994 10992 10991 10989 10987 10986 10984 10983 10982 10982 10981 10979 10977 10976 10974 10972 10970 10967 10966 10966 10964
10971 10972 10972 10973 10974 10975 10977 10979 10980 10982 10983 10984 10985 10986 10988 10990 10992 10993 10995 10996 10997 10998 10999 11000 11002 11003 11004 11005 11005 11006 11007 11008 11009 11009 11008 11008 11008 11008 11008 11008 11008 11008 11007 11007 11006 11005 11005 11004 11004 11004 11003 11002 11001 11000 10999 10999 10998 10997 10996 10996 10995 10995 10994 10994 10993 10992 10991 10989 10987 10985 10983 10982 10980 10980 10980 10978 10976 10975 10973 10971 10969 10967 10964 10963 10962
10967 10968 10970 10970 10971 10973 10974 10975 10977 10979 10980 10981 10982 10983 10985 10987 10988 10989 10991 10992 10993 10994 10996 10997 10998 10999 11000 11001 11002 11003 11004 11005 11005 11006 11005 11005 11005 11005 11005 11005 11005 11005 11004 11004 11003 11003 11002 11002 11002 11001 11001 11000 10999 10998 10997 10996 10996 10995 10995 10994 10993 10993 10992 10992 10991 10991 10990 10988 10986 10984 10982 10980 10978 10977 10978 10977 10975 10973 10972 10971 10968 10966 10964 10961 10959
10964 10966 10967 10968 10968 10970 10971 10972 10973 10975 10976 10977 10979 10980 10982 10983 10985 10985 10987 10988 10989 10991 10992 10993 10994 10996 10997 10998 10998 10999 11000 11001 11002 11002 11002 11002 11002 11002 11002 11002 11002 11002 11001 11001 11001 11000 11000 10999 10999 10999 10998 10998 10997 10996 10995 10994 10993 10993 10993 10992 10991 10990 10990 10990 10989 10989 10988 10987 10986 10984 10981 10979 10977 10975 10975 10975 10973 10971 10970 10969 10967 10965 10963 10961 10958
10961 10963 10964 10964 10965 10967 10968 10969 10969 10970 10972 10973 10975 10977 10979 10980 10980 10981 10983 10984 10986 10987 10988 10989 10991 10992 10993 10994 10995 10996 10997 10998 10998 10999 10999 10998 10999 10999 10999 10998 10998 10998 10998 10998 10998 10997 10997 10996 10996 10996 10995 10995 10994 10993 10992 10991 10991 10990 10990 10990 10989 10988 10987 10987 10987 10986 10986 10985 10984 10982 10980 10977 10975 10973 10973 10973 10971 10969 10968 10966 10964 10962 10961 10959 10956
10957 10959 10960 10961 10962 10963 10964 10964 10965 10966 10967 10969 10971 10973 10974 10975 10976 10977 10979 10981 10982 10982 10984 10985 10987 10988 10989 10990 10991 10992 10993 10994 10995 10995 10995 10995 10995 10995 10994 10994 10995 10995 10995 10995 10994 10994 10994 10993 10993 10993 10992 10992 10991 10990 10989 10989 10988 10987 10987 10986 10986 10985 10984 10984 10984 10983 10983 10982 10981 10980 10978 10976 10973 10970 10969 10969 10968 10967 10965 10963 10962 10959 10957 10955 10954
10953 10955 10956 10957 10958 10960 10960 10960 10961 10962 10963 10965 10967 10968 10970 10971 10972 10974 10976 10977 10977 10978 10979 10981 10982 10983 10985 10986 10987 10988 10989 10990 10991 10992 10991 10991 10991 10990 10990 10990 10991 10991 10991 10991 10991 10991 10991 10990 10990 10990 10989 10988 10988 10987 10986 10985 10985 10985 10984 10983 10982 10981 10981 10980 10980 10980 10980 10979 10978 10977 10975 10973 10971 10968 10966 10965 10965 10963 10961 10960 10958 10956 10954 10952 10952
10949 10950 10951 10952 10954 10955 10956 10956 10957 10958 10959 10960 10962 10963 10965 10966 10967 10970 10972 10973 10974 10974 10975 10977 10978 10979 10980 10982 10983 10984 10985 10986 10987 10988 10988 10987 10987 10986 10985 10986 10987 10987 10987 10987 10987 10987 10987 10987 10987 10986 10986 10985 10985 10983 10982 10982 10982 10981 10981 10980 10979 10978 10977 10976 10976 10976 10976 10975 10975 10974 10972 10970 10968 10965 10962 10961 10960 10960 10958 10957 10956 10955 10953 10951 10949
10944 10945 10946 10947 10949 10950 10952 10952 10953 10954 10955 10956 10957 10958 10960 10961 10963 10966 10967 10969 10969 10970 10971 10973 10973 10974 10976 10978 10979 10980 10981 10982 10983 10984 10983 10982 10982 10982 10981 10982 10982 10983 10983 10983 10983 10983 10983 10983 10983 10983 10983 10982 10981 10980 10978 10977 10978 10978 10977 10977 10976 10975 10974 10973 10971 10971 10971 10971 10971 10970 10970 10968 10966 10964 10961 10958 10957 10956 10955 10954 10954 10953 10951 10949 10946
10938 10940 10941 10943 10944 10946 10947 10948 10949 10950 10951 10952 10953 10954 10955 10957 10959 10961 10962 10964 10965 10966 10967 10969 10969 10970 10971 10973 10974 10975 10976 10977 10978 10978 10978 10977 10977 10977 10977 10977 10977 10978 10979 10979 10979 10978 10979 10979 10979 10979 10979 10979 10978 10976 10975 10974 10973 10973 10973 10973 10972 10971 10971 10969 10968 10966 10966 10967 10967 10966 10966 10965 10963 10961 10960 10957 10955 10954 10952 10951 10951 10950 10949 10947 10945
10933 10934 10936 10938 10940 10941 10943 10944 10945 10946 10947 10947 10949 10950 10951 10952 10954 10956 10957 10959 10960 10962 10963 10964 10964 10965 10966 10968 10969 10970 10971 10972 10972 10972 10972 10972 10972 10972 10972 10972 10973 10974 10975 10975 10974 10974 10974 10974 10974 10974 10975 10975 10974 10972 10971 10970 10969 10969 10969 10969 10968 10968 10967 10966 10965 10963 10962 10962 10962 10962 10961 10961 10960 10959 10957 10956 10954 10952 10951 10950 10949 10948 10947 10945 10943
10927 10929 10932 10934 10935 10936 10938 10939 10940 10941 10942 10943 10945 10946 10946 10948 10949 10951 10952 10954 10955 10957 10958 10959 10959 10960 10961 10963 10963 10964 10966 10966 10966 10966 10967 10967 10967 10967 10967 10968 10969 10970 10970 10970 10969 10969 10969 10969 10970 10970 10971 10971 10969 10968 10967 10966 10965 10964 10964 10965 10965 10965 10964 10963 10961 10961 10960 10959 10958 10957 10957 10956 10956 10955 10954 10952 10951 10949 10948 10946 10945 10945 10944 10941 10939
10923 10925 10927 10928 10929 10931 10933 10934 10936 10937 10938 10939 10940 10941 10942 10943 10944 10945 10947 10949 10950 10952 10954 10954 10955 10956 10957 10958 10958 10958 10960 10960 10959 10960 10961 10962 10962 10963 10962 10963 10965 10966 10966 10966 10965 10964 10965 10965 10965 10965 10966 10966 10965 10963 10962 10962 10960 10960 10960 10960 10960 10960 10960 10959 10957 10957 10956 10955 10954 10954 10953 10952 10951 10951 10950 10949 10947 10946 10944 10942 10941 10940 10940 10938 10936
10918 10919 10921 10923 10925 10927 10929 10930 10931 10933 10934 10934 10935 10936 10937 10938 10939 10940 10942 10944 10945 10947 10949 10950 10951 10952 10953 10953 10952 10953 10954 10954 10954 10954 10956 10957 10957 10958 10958 10959 10960 10961 10961 10961 10961 10960 10961 10961 10961 10961 10961 10961 10961 10959 10958 10957 10956 10955 10955 10955 10955 10955 10955 10955 10953 10953 10952 10951 10950 10950 10949 10948 10947 10946 10945 10944 10943 10941 10939 10938 10936 10935 10934 10933 10932
10913 10915 10917 10919 10921 10923 10924 10925 10927 10928 10929 10930 10931 10932 10932 10934 10934 10935 10937 10939 10940 10942 10944 10945 10946 10947 10948 10948 10948 10948 10949 10949 10949 10949 10951 10952 10953 10953 10954 10955 10956 10957 10956 10956 10956 10957 10957 10957 10957 10956 10956 10957 10956 10955 10954 10953 10952 10951 10950 10950 10950 10950 10950 10950 10949 10948 10947 10946 10945 10945 10944 10943 10942 10940 10939 10938 10937 10935 10934 10932 10931 10930 10928 10927 10926
10909 10911 10913 10914 10916 10918 10920 10921 10923 10924 10925 10926 10927 10928 10928 10929 10930 10930 10932 10934 10935 10936 10938 10939 10941 10942 10942 10943 10943 10944 10945 10945 10945 10945 10946 10948 10948 10949 10950 10951 10951 10952 10952 10952 10952 10953 10953 10953 10952 10952 10952 10952 10952 10951 10949 10948 10947 10946 10945 10945 10945 10945 10944 10944 10944 10943 10942 10941 10940 10940 10938 10937 10936 10935 10933 10932 10931 10929 10928 10926 10924 10923 10922 10921 10920
10904 10906 10908 10909 10911 10913 10915 10916 10919 10920 10920 10921 10922 10923 10924 10924 10925 10926 10928 10929 10930 10931 10933 10934 10935 10936 10937 10938 10939 10940 10941 10942 10941 10941 10942 10944 10944 10945 10946 10947 10947 10947 10947 10948 10948 10949 10949 10949 10948 10948 10947 10947 10947 10946 10945 10944 10943 10942 10941 10940 10940 10939 10939 10939 10939 10938 10937 10937 10935 10935 10934 10932 10930 10929 10928 10927 10925 10924 10922 10921 10919 10917 10916 10915 10914
10899 10901 10902 10904 10906 10908 10910 10912 10914 10915 10916 10916 10917 10918 10919 10920 10920 10921 10923 10923 10924 10926 10927 10928 10929 10930 10932 10933 10934 10936 10937 10938 10938 10937 10939 10940 10941 10941 10942 10942 10942 10942 10942 10943 10944 10945 10945 10945 10944 10943 10943 10943 10942 10941 10940 10940 10939 10938 10937 10936 10935 10935 10934 10934 10934 10933 10932 10932 10930 10929 10928 10927 10925 10924 10922 10921 10920 10918 10917 10915 10914 10912 10910 10909 10908
10893 10894 10896 10899 10901 10903 10905 10907 10909 10910 10911 10912 10912 10913 10914 10914 10915 10916 10917 10918 10919 10920 10921 10923 10924 10925 10927 10928 10930 10931 10933 10934 10934 10934 10935 10937 10937 10938 10938 10937 10937 10937 10938 10939 10940 10941 10941 10941 10940 10939 10939 10938 10937 10937 10936 10935 10935 10934 10933 10932 10932 10931 10930 10930 10929 10928 10927 10926 10925 10923 10922 10922 10921 10919 10918 10916 10915 10913 10912 10910 10908 10907 10905 10903 10902
10886 10888 10890 10893 10896 10898 10900 10902 10904 10905 10905 10906 10907 10908 10909 10909 10910 10911 10912 10913 10914 10915 10916 10918 10919 10920 10922 10923 10925 10927 10928 10929 10930 10930 10931 10932 10933 10933 10933 10932 10932 10933 10933 10935 10936 10936 10936 10936 10935 10935 10934 10934 10933 10932 10932 10931 10931 10930 10930 10929 10928 10928 10927 10926 10925 10923 10922 10921 10920 10918 10917 10916 10915 10914 10912 10911 10909 10908 10906 10905 10903 10902 10900 10899 10897
10880 10882 10885 10888 10890 10893 10895 10897 10898 10899 10900 10901 10902 10902 10903 10904 10904 10905 10906 10907 10908 10909 10911 10913 10914 10915 10916 10917 10919 10921 10922 10923 10924 10925 10925 10926 10928 10927 10927 10927 10928 10928 10929 10930 10930 10930 10930 10930 10930 10931 10930 10929 10929 10928 10928 10927 10927 10926 10926 10925 10925 10924 10923 10922 10921 10919 10918 10917 10915 10913 10912 10911 10909 10908 10907 10905 10904 10903 10901 10900 10898 10897 10896 10894 10892
10875 10877 10880 10883 10886 10888 10890 10891 10893 10893 10894 10895 10897 10897 10898 10899 10900 10900 10901 10902 10903 10905 10906 10907 10908 10909 10910 10911 10914 10916 10917 10918 10919 10919 10919 10920 10921 10921 10921 10922 10923 10923 10924 10924 10924 10924 10924 10925 10926 10926 10925 10925 10925 10924 10923 10923 10923 10922 10922 10921 10921 10920 10919 10918 10917 10915 10914 10912 10910 10908 10907 10905 10904 10902 10901 10900 10899 10898 10897 10895 10894 10892 10891 10889 10888
10869 10871 10874 10878 10881 10883 10884 10886 10887 10888 10889 10891 10891 10892 10893 10894 10895 10895 10896 10897 10898 10900 10901 10901 10902 10903 10904 10906 10908 10909 10911 10912 10913 10913 10914 10914 10914 10915 10915 10917 10917 10918 10918 10919 10919 10919 10919 10920 10921 10921 10920 10920 10920 10919 10918 10918 10918 10917 10917 10917 10916 10915 10914 10913 10912 10910 10909 10907 10905 10903 10901 10900 10899 10898 10896 10895 10894 10893 10892 10891 10889 10888 10886 10884 10883
10863 10866 10869 10873 10875 10877 10878 10880 10881 10883 10884 10885 10886 10886 10887 10889 10889 10890 10891 10892 10893 10894 10895 10895 10896 10897 10899 10901 10902 10902 10903 10905 10907 10907 10908 10908 10908 10908 10909 10911 10912 10912 10913 10914 10914 10914 10914 10915 10915 10915 10914 10914 10914 10914 10913 10913 10912 10912 10912 10912 10911 10909 10908 10907 10906 10905 10903 10901 10900 10898 10897 10895 10895 10893 10892 10890 10890 10889 10887 10886 10884 10883 10881 10879 10878
10858 10861 10864 10867 10869 10870 10872 10874 10876 10877 10878 10879 10880 10881 10882 10883 10884 10885 10885 10887 10888 10889 10889 10890 10890 10891 10893 10894 10895 10895 10896 10898 10900 10901 10902 10902 10902 10903 10903 10905 10906 10907 10907 10908 10908 10908 10909 10909 10908 10908 10908 10907 10907 10908 10908 10908 10908 10907 10906 10906 10905 10903 10902 10901 10900 10899 10897 10896 10895 10893 10892 10891 10890 10889 10887 10886 10884 10883 10882 10881 10879 10877 10876 10874 10873
10852 10855 10859 10861 10863 10864 10867 10869 10870 10871 10872 10873 10874 10875 10876 10877 10878 10879 10880 10882 10883 10883 10884 10884 10884 10885 10886 10888 10888 10888 10889 10891 10893 10894 10895 10896 10896 10897 10898 10899 10900 10901 10901 10901 10901 10902 10903 10903 10902 10901 10901 10901 10901 10902 10902 10902 10902 10901 10900 10899 10898 10897 10896 10895 10894 10892 10890 10889 10889 10888 10886 10886 10885 10883 10882 10881 10879 10878 10876 10875 10873 10871 10869 10868 10867
10846 10849 10852 10855 10856 10859 10861 10862 10863 10865 10866 10867 10867 10868 10870 10872 10873 10874 10876 10876 10877 10879 10879 10878 10878 10879 10880 10882 10883 10883 10883 10885 10886 10888 10889 10890 10890 10891 10892 10892 10893 10894 10894 10895 10895 10895 10896 10896 10895 10895 10895 10895 10895 10896 10896 10895 10895 10894 10894 10894 10892 10891 10890 10888 10886 10885 10883 10883 10882 10881 10880 10879 10879 10877 10876 10875 10873 10871 10870 10868 10867 10865 10863 10861 10860
10840 10843 10846 10849 10851 10852 10854 10856 10857 10859 10860 10860 10861 10862 10864 10866 10867 10869 10870 10871 10873 10874 10872 10870 10871 10873 10875 10876 10877 10877 10877 10879 10880 10881 10882 10882 10883 10884 10885 10885 10886 10887 10888 10889 10889 10888 10888 10889 10888 10888 10888 10889 10889 10889 10889 10888 10888 10888 10888 10887 10886 10885 10883 10881 10879 10878 10877 10876 10875 10874 10873 10873 10872 10871 10870 10869 10867 10865 10864 10862 10860 10859 10856 10854 10853
10834 10837 10840 10842 10843 10845 10847 10850 10851 10852 10853 10853 10854 10856 10858 10860 10862 10863 10865 10867 10867 10866 10864 10863 10865 10868 10869 10869 10871 10872 10872 10872 10873 10874 10875 10875 10877 10878 10878 10878 10879 10881 10882 10882 10881 10881 10881 10882 10882 10881 10882 10883 10882 10882 10882 10882 10881 10881 10881 10881 10879 10878 10877 10875 10873 10872 10871 10871 10869 10868 10867 10867 10866 10864 10864 10863 10861 10859 10857 10855 10854 10852 10850 10847 10845
10827 10830 10833 10834 10836 10838 10841 10843 10844 10845 10846 10846 10847 10850 10852 10853 10855 10857 10859 10860 10859 10858 10857 10858 10860 10863 10863 10864 10865 10866 10866 10867 10868 10869 10869 10869 10870 10871 10871 10872 10873 10873 10873 10873 10873 10874 10874 10875 10875 10875 10876 10876 10876 10876 10876 10875 10874 10874 10875 10874 10874 10872 10871 10870 10869 10867 10867 10866 10865 10863 10862 10861 10860 10858 10856 10856 10855 10853 10850 10848 10847 10845 10843 10841 10838
10821 10823 10825 10828 10831 10833 10834 10835 10837 10838 10840 10841 10842 10843 10845 10847 10849 10851 10852 10852 10852 10852 10852 10853 10854 10856 10858 10859 10859 10860 10861 10862 10863 10863 10862 10862 10863 10863 10864 10866 10866 10866 10866 10866 10867 10867 10867 10868 10868 10868 10869 10869 10870 10870 10870 10869 10869 10869 10870 10870 10869 10868 10867 10866 10864 10864 10863 10861 10859 10857 10856 10854 10853 10851 10849 10848 10847 10845 10843 10841 10839 10837 10835 10833 10831
10813 10815 10818 10821 10824 10826 10827 10829 10830 10832 10833 10834 10835 10837 10838 10840 10843 10844 10844 10845 10846 10846 10846 10847 10848 10850 10852 10852 10853 10854 10856 10856 10856 10856 10856 10856 10856 10857 10859 10860 10860 10860 10860 10860 10860 10860 10860 10861 10862 10862 10862 10863 10863 10864 10864 10864 10864 10865 10865 10864 10864 10864 10864 10861 10859 10859 10858 10854 10851 10850 10849 10847 10845 10844 10842 10841 10839 10837 10835 10834 10831 10829 10827 10824 10822
10806 10808 10812 10815 10818 10819 10820 10821 10823 10825 10825 10827 10829 10830 10832 10834 10836 10837 10837 10839 10840 10840 10840 10841 10842 10843 10844 10845 10846 10848 10849 10849 10849 10850 10850 10850 10851 10851 10853 10854 10854 10854 10854 10854 10854 10854 10854 10854 10855 10856 10856 10856 10856 10857 10857 10857 10858 10859 10859 10858 10859 10861 10860 10855 10851 10850 10848 10845 10843 10843 10841 10839 10838 10837 10835 10834 10832 10829 10826 10825 10823 10820 10818 10815 10813
10800 10802 10805 10808 10810 10811 10812 10813 10816 10818 10819 10820 10822 10823 10825 10827 10829 10829 10830 10832 10833 10834 10835 10835 10835 10835 10836 10838 10839 10841 10842 10843 10844 10845 10844 10844 10844 10845 10847 10848 10848 10847 10848 10848 10849 10848 10848 10848 10849 10849 10849 10848 10849 10850 10850 10850 10851 10853 10854 10852 10852 10852 10851 10846 10841 10839 10838 10836 10836 10835 10833 10831 10830 10829 10827 10826 10824 10820 10817 10815 10814 10812 10809 10806 10804
10793 10795 10797 10799 10801 10802 10804 10806 10809 10811 10812 10813 10815 10816 10818 10819 10821 10822 10823 10825 10826 10827 10828 10828 10828 10829 10830 10831 10833 10835 10836 10838 10838 10838 10838 10838 10838 10839 10840 10841 10841 10841 10842 10842 10842 10842 10842 10842 10842 10841 10841 10841 10842 10843 10844 10844 10844 10845 10845 10843 10841 10840 10839 10836 10833 10831 10829 10828 10828 10827 10825 10823 10822 10820 10818 10817 10815 10812 10808 10806 10804 10803 10800 10797 10794
10784 10786 10789 10791 10793 10795 10797 10799 10801 10803 10805 10807 10808 10809 10810 10812 10813 10815 10816 10818 10819 10820 10820 10821 10822 10823 10824 10825 10827 10828 10830 10831 10831 10831 10831 10832 10833 10833 10834 10834 10834 10835 10835 10835 10836 10836 10837 10836 10835 10834 10835 10835 10835 10836 10836 10837 10837 10837 10837 10835 10832 10831 10830 10828 10826 10824 10821 10820 10819 10818 10817 10815 10813 10811 10809 10807 10805 10803 10800 10796 10794 10792 10790 10787 10784
10774 10776 10780 10783 10785 10787 10789 10792 10794 10796 10799 10800 10801 10802 10803 10805 10806 10808 10810 10811 10812 10813 10814 10815 10816 10817 10818 10819 10820 10821 10822 10824 10824 10824 10825 10826 10826 10826 10827 10827 10828 10828 10828 10829 10829 10830 10830 10830 10830 10829 10829 10828 10828 10828 10828 10829 10828 10828 10827 10827 10826 10824 10823 10821 10819 10816 10813 10811 10809 10808 10808 10806 10804 10802 10800 10797 10794 10793 10791 10787 10784 10781 10779 10776 10773
10764 10768 10772 10774 10776 10779 10781 10784 10787 10789 10791 10793 10794 10795 10797 10798 10800 10802 10803 10804 10805 10806 10807 10808 10809 10810 10811 10812 10812 10814 10816 10817 10817 10818 10818 10818 10819 10819 10820 10820 10820 10821 10821 10822 10822 10822 10822 10823 10824 10824 10822 10821 10820 10820 10820 10819 10818 10817 10817 10817 10817 10816 10814 10812 10810 10807 10805 10803 10801 10800 10798 10797 10795 10793 10791 10787 10784 10782 10780 10778 10774 10771 10767 10764 10761
10759 10762 10765 10766 10769 10771 10774 10776 10779 10781 10783 10785 10787 10788 10790 10792 10793 10794 10796 10797 10798 10799 10800 10801 10802 10803 10804 10804 10805 10807 10808 10809 10810 10811 10811 10811 10811 10812 10812 10813 10813 10814 10814 10815 10815 10814 10814 10815 10815 10815 10815 10814 10813 10811 10811 10810 10809 10807 10807 10807 10806 10805 10804 10802 10800 10798 10796 10794 10793 10791 10789 10787 10785 10783 10781 10778 10774 10771 10769 10767 10763 10760 10756 10752 10749
10754 10756 10756 10758 10761 10764 10766 10769 10771 10773 10775 10778 10780 10781 10783 10784 10785 10787 10788 10790 10791 10792 10793 10794 10795 10796 10796 10797 10798 10799 10800 10800 10801 10802 10803 10804 10805 10805 10805 10806 10806 10806 10806 10806 10806 10806 10806 10806 10806 10806 10806 10806 10805 10803 10802 10801 10800 10799 10798 10797 10796 10795 10794 10792 10790 10789 10787 10785 10783 10782 10779 10777 10774 10772 10770 10767 10764 10760 10757 10755 10752 10748 10744 10741 10738
10744 10746 10747 10749 10752 10755 10758 10760 10762 10764 10766 10769 10772 10774 10775 10777 10778 10779 10781 10782 10783 10785 10785 10786 10787 10788 10788 10789 10790 10791 10792 10793 10793 10794 10795 10796 10797 10797 10798 10798 10798 10798 10798 10798 10798 10798 10797 10797 10797 10797 10796 10796 10795 10794 10793 10792 10791 10789 10788 10787 10786 10785 10784 10782 10781 10779 10777 10775 10773 10771 10768 10766 10763 10761 10759 10756 10753 10749 10746 10742 10739 10735 10732 10729 10726
10732 10735 10738 10740 10743 10746 10750 10752 10752 10753 10757 10760 10763 10766 10768 10769 10770 10771 10772 10774 10775 10777 10778 10778 10779 10779 10780 10781 10782 10783 10784 10784 10785 10785 10786 10787 10787 10788 10789 10789 10789 10790 10790 10790 10790 10789 10789 10788 10788 10787 10787 10786 10785 10784 10784 10782 10781 10780 10778 10777 10776 10774 10773 10771 10769 10768 10766 10763 10762 10760 10757 10755 10752 10750 10747 10744 10740 10737 10734 10730 10726 10723 10720 10717 10714
10722 10725 10728 10731 10734 10737 10740 10742 10743 10744 10748 10752 10755 10757 10759 10761 10761 10763 10764 10765 10767 10768 10769 10770 10770 10770 10771 10772 10773 10774 10774 10775 10776 10776 10777 10777 10778 10778 10779 10779 10779 10780 10780 10780 10780 10780 10779 10779 10778 10777 10777 10776 10775 10774 10773 10772 10771 10769 10768 10766 10765 10763 10762 10760 10758 10756 10754 10752 10750 10748 10745 10743 10740 10737 10735 10731 10728 10725 10722 10718 10715 10712 10708 10705 10702